Observer details:
046 Klet.  Observers J. Ticha, M. Tichy.  0.57-m f/5.2 reflector + CCD.
113 Volkssternwarte Drebach, Schoenbrunn.  Observers G. Lehmann, J. Kandler.
    0.50-m f/4.0 reflector + CCD.
118 Modra.  Observers L. Kornos, P. Koleny, J. Toth.  0.6-m f/5.5 reflector
    + CCD.
344 Bohyunsan Optical Astronomy Observatory.  Observers B.-G. Park, Y.-H. Park.
    Measurer M.-Y. Chun.  1.8-m f/8 reflector + CCD.
345 Sobaeksan Optical Astronomy Observatory.  Observers J.-W. Lee, S.-L. Kim.
    0.61-m reflector + CCD.
422 Loomberah.  Observer G. J. Garradd.  0.45-m f/5.4 reflector + CCD.
557 Ondrejov.  Observers P. Pravec, P. Kusnirak, M. Wolf.  0.65-m f/3.6
    reflector + CCD.
611 Starkenburg.  Observer R. Stoss.  0.45-m f/4.4 reflector + CCD.
695 Kitt Peak.  Observer M. L. Hicks.  2.1-m reflector + CCD.
699 Lowell Observatory-LONEOS.  Observer B. A. Skiff.  Measurer B. W. Koehn.
    0.59-m LONEOS Schmidt + CCD.
704 Lincoln Laboratory ETS, New Mexico.  Observers M. Blythe, F. Shelly,
    M. Bezpalko, M. Elowitz, R. Huber.  Measurers J. Stuart, H. Viggh,
    R. Sayer, J. B. Evans.  1.0-m f/2.15 reflector + CCD.
850 Cordell-Lorenz Observatory, Sewanee.  Observer D. T. Durig.  0.3-m f/5.75
    Schmidt-Cassegrain + CCD.

Orbital elements:
2000 JA3
Epoch 2000 Apr. 26.0 TT = JDT 2451660.5                 Williams
M 341.48500              (2000.0)            P               Q
n   0.29011235     Peri.  150.34134     +0.01495604     +0.98812887
a   2.2599140      Node   120.12937     -0.94865834     +0.06234148
e   0.4589551      Incl.   10.18236     -0.31594884     -0.14040966
P   3.40           H   18.7           G   0.15
From 99 observations 2000 Apr. 29-May 9.

Ephemeris:
2000 JA3                 a,e,i = 2.26, 0.46, 10                  q = 1.2227
Date    TT    R. A. (2000) Decl.     Delta      r     Elong.  Phase     V
2000 05 06    15 41.26   +17 24.9    0.389    1.344   144.0    26.2    18.5
2000 05 16    15 43.97   +18 36.8    0.350    1.305   142.2    28.4    18.2
2000 05 26    15 46.75   +18 23.0    0.318    1.273   140.0    30.8    18.1
2000 06 05    15 51.15   +16 20.1    0.292    1.248   138.2    32.8    17.9
2000 06 15    15 58.98   +12 12.7    0.274    1.231   137.4    33.9    17.7
2000 06 25    16 11.48   +06 03.1    0.263    1.223   137.6    34.1    17.6
2000 07 05    16 29.30   -01 42.5    0.262    1.224   138.3    33.5    17.6
2000 07 15    16 52.52   -10 06.6    0.273    1.235   138.6    33.0    17.7
2000 07 25    17 20.21   -17 55.9    0.298    1.253   137.9    32.9    17.9
2000 08 04    17 50.89   -24 14.7    0.338    1.280   136.0    33.4    18.3
2000 08 14    18 22.97   -28 41.3    0.392    1.314   133.3    34.1    18.7
2000 08 24    18 54.78   -31 22.5    0.459    1.353   130.1    34.8    19.1
2000 09 03    19 25.27   -32 37.5    0.539    1.398   126.6    35.4    19.5
2000 09 13    19 53.99   -32 47.4    0.629    1.448   122.9    35.7    20.0
2000 09 23    20 20.74   -32 10.2    0.731    1.500   118.9    35.8    20.4
2000 10 03    20 45.67   -30 59.7    0.843    1.555   114.8    35.7    20.8
2000 10 13    21 09.04   -29 25.9    0.965    1.612   110.5    35.4    21.1
2000 10 23    21 31.05   -27 36.0    1.095    1.670   105.9    34.9    21.5
2000 11 02    21 51.97   -25 35.1    1.235    1.729   101.3    34.3    21.8

Gareth V. Williams           (C) Copyright 2000 MPC           M.P.E.C. 2000-J35

Read MPEC 2000-J34 Read MPEC 2000-J36


Our Web policy. Index to the CBAT/MPC/ICQ pages.

